CAPE
196 0 87 14 0 0 0 0 0 0 0 0 0 0 0 0 0 0 10 23 24 14 11 12 11 12 8 9 8 8 8 9 10 10 11 11 12 9 8 8 7 6 5
43 0 14 0 0 0 0 0 0 0 0 0 0 0 0 0 0 0 5 15 32 25 14 15 11 12 12 9 8 8 8 8 9 9 8 9 7 7 7 7 7 7 7
23 2 2 0 0 0 0 0 0 0 0 0 0 0 0 0 0 0 1 9 7 16 17 11 10 11 10 8 8 8 8 8 8 9 9 9 8 6 6 6 6 6 8
2 1 1 0 0 0 0 0 0 0 0 0 0 0 0 0 0 0 1 7 15 7 4 17 7 7 9 11 12 11 9 9 8 8 9 9 9 8 6 6 6 8 8
2 0 0 0 0 0 0 0 0 0 0 0 0 0 0 0 0 0 1 1 2 3 2 6 12 10 8 9 11 11 12 11 8 8 9 8 7 6 7 6 5 7 7
2 1 0 0 0 0 0 0 0 0 0 0 0 0 0 0 0 0 0 0 1 1 0 4 5 7 10 7 12 14 15 11 12 9 8 6 6 5 5 6 6 6 6
2 1 0 0 0 0 0 0 0 0 0 0 0 0 0 0 0 0 0 0 0 0 0 0 0 1 5 6 9 12 14 11 11 9 5 5 4 2 3 4 4 4 5
7 2 0 0 0 0 0 0 0 0 0 0 0 0 0 0 0 0 0 0 0 0 0 0 0 0 0 1 9 6 9 11 7 6 5 3 3 2 2 3 2 2 3
4 5 2 0 0 0 0 0 0 0 0 0 0 0 0 0 0 0 0 0 0 0 0 0 0 0 0 0 0 0 0 3 6 8 7 5 3 4 4 4 4 4 4
1 0 0 0 0 0 0 0 0 0 0 0 0 0 0 0 0 0 0 0 0 0 0 0 0 0 0 0 0 0 0 0 1 5 5 2 3 4 4 5 4 4 4
0 0 0 0 2 0 0 0 0 0 0 0 0 0 0 0 0 0 0 0 0 1 0 0 0 0 0 0 0 0 0 0 0 0 0 0 1 2 3 3 4 3 3
1 0 1 0 0 0 0 0 0 0 0 0 0 0 0 0 0 0 0 0 0 1 1 0 0 0 0 0 0 0 0 0 0 0 0 0 0 0 0 0 0 0 1
1 0 0 1 0 0 0 1 1 0 0 0 0 0 0 0 0 0 0 0 0 1 3 0 0 0 0 0 0 0 0 0 0 0 0 0 0 0 0 0 0 0 0
3 1 0 0 0 0 0 0 0 3 0 0 4 0 0 0 0 0 0 0 0 0 0 0 0 0 0 0 0 0 0 0 0 0 0 0 0 0 0 0 0 0 0
7 6 0 1 1 0 0 1 0 0 0 0 3 8 0 0 0 0 0 0 0 0 0 0 0 0 0 0 0 0 0 0 0 0 0 0 0 0 0 0 0 0 0
5 9 5 5 6 0 0 0 0 0 0 0 0 0 0 0 0 0 0 0 0 0 0 0 0 0 0 0 0 1 0 0 0 0 0 0 0 0 0 0 0 0 0
2 4 6 3 2 3 1 1 0 0 0 0 0 0 0 0 0 0 0 0 0 0 0 0 0 0 0 0 0 0 0 0 0 0 0 0 0 0 0 0 0 0 0
0 0 1 0 2 1 1 0 0 0 0 0 0 0 0 0 0 0 0 0 0 0 0 0 0 0 0 0 0 0 0 0 0 0 0 0 0 0 0 0 0 0 0
3 1 0 0 1 0 1 0 0 1 0 0 0 0 0 0 1 1 0 0 0 0 0 0 0 0 0 0 0 0 0 0 0 0 0 0 0 0 0 0 0 0 0
4 4 1 1 1 1 1 1 1 1 1 0 0 0 0 0 0 0 0 0 0 0 0 0 0 1 1 2 0 0 0 0 0 0 0 0 0 0 0 0 0 0 0
2 2 2 1 1 3 0 0 0 0 0 0 0 0 0 0 0 0 0 0 0 0 0 1 2 3 2 1 0 0 0 0 0 0 0 0 0 0 0 0 0 0 0
12 2 2 2 0 0 0 0 0 0 0 0 0 0 0 0 0 0 0 0 0 0 2 5 4 1 0 0 0 0 0 0 0 0 0 0 0 0 0 0 0 0 0
2 4 1 2 1 0 1 0 0 0 0 0 0 0 0 0 0 0 0 1 1 0 0 1 3 1 0 0 0 0 0 0 0 0 0 0 0 0 0 0 0 0 0
2 2 2 0 1 0 0 0 0 0 0 0 0 0 0 0 1 1 3 4 4 0 0 1 0 0 0 0 0 0 0 0 0 0 0 0 0 0 0 0 0 0 0
4 6 1 0 0 0 0 0 0 0 0 0 0 0 0 1 1 0 0 2 1 1 0 0 0 0 0 0 0 0 0 0 0 0 1 0 0 0 0 0 0 0 0
0 1 0 0 2 0 0 0 0 0 0 0 0 1 0 1 0 0 0 0 2 2 3 2 3 0 0 0 0 0 0 0 0 1 1 0 0 0 0 0 0 0 0
CIN
-338 -0 -369 -464 -0 -0 -0 -0 -0 -0 -0 -0 -0 -0 -0 -0 -0 -0 -0 -4 -1 -0 -0 -0 -0 -0 -0 -0 -0 -0 -0 -0 -0 -0 -0 -0 -0 -0 -0 -0 -0 -0 -0
-428 -0 -447 -0 -0 -0 -0 -0 -0 -0 -0 -0 -0 -0 -0 -0 -0 -0 -0 -0 -4 -0 -0 -0 -0 -0 -0 -0 -0 -0 -0 -0 -0 -0 -0 -0 -0 -0 -0 -0 -0 -0 -0
-456 -0 -0 -0 -0 -0 -0 -0 -0 -0 -0 -0 -0 -0 -0 -0 -0 -0 -0 -0 -3 -4 -0 -0 -0 -0 -0 -0 -0 -0 -0 -0 -0 -0 -0 -0 -0 -0 -0 -0 -0 -0 -0
-0 -0 -0 -0 -0 -0 -0 -0 -0 -0 -0 -0 -0 -0 -0 -0 -0 -0 -0 -0 -0 -0 -2 -0 -0 -0 -0 -0 -0 -0 -0 -0 -0 -0 -0 -0 -0 -0 -0 -0 -0 -0 -0
-0 -0 -0 -0 -0 -0 -0 -0 -0 -0 -0 -0 -0 -0 -0 -0 -0 -0 -0 -0 -0 -0 -0 -0 -0 -0 -0 -0 -0 -0 -0 -0 -0 -0 -0 -0 -0 -0 -0 -0 -0 -0 -0
-0 -0 -0 -0 -0 -0 -0 -0 -0 -0 -0 -0 -0 -0 -0 -0 -0 -0 -0 -0 -0 -0 -0 -0 -0 -0 -0 -0 -0 -0 -0 -0 -0 -0 -0 -0 -0 -0 -0 -0 -0 -0 -0
-0 -0 -0 -0 -0 -0 -0 -0 -0 -0 -0 -0 -0 -0 -0 -0 -0 -0 -0 -0 -0 -0 -0 -0 -0 -0 -0 -0 -0 -0 -0 -0 -0 -0 -0 -0 -0 -0 -0 -0 -0 -0 -0
-28 -0 -0 -0 -0 -0 -0 -0 -0 -0 -0 -0 -0 -0 -0 -0 -0 -0 -0 -0 -0 -0 -0 -0 -0 -0 -0 -0 -0 -0 -0 -0 -0 -0 -0 -0 -0 -0 -0 -0 -0 -0 -0
-0 -0 -0 -0 -0 -0 -0 -0 -0 -0 -0 -0 -0 -0 -0 -0 -0 -0 -0 -0 -0 -0 -0 -0 -0 -0 -0 -0 -0 -0 -0 -0 -0 -0 -0 -0 -0 -0 -0 -0 -0 -0 -0
-0 -0 -0 -0 -0 -0 -0 -0 -0 -0 -0 -0 -0 -0 -0 -0 -0 -0 -0 -0 -0 -0 -0 -0 -0 -0 -0 -0 -0 -0 -0 -0 -0 -0 -0 -0 -0 -0 -0 -0 -0 -0 -0
-0 -0 -0 -0 -0 -0 -0 -0 -0 -0 -0 -0 -0 -0 -0 -0 -0 -0 -0 -0 -0 -0 -0 -0 -0 -0 -0 -0 -0 -0 -0 -0 -0 -0 -0 -0 -0 -0 -0 -0 -0 -0 -0
-0 -0 -0 -0 -0 -0 -0 -0 -0 -0 -0 -0 -0 -0 -0 -0 -0 -0 -0 -0 -0 -0 -0 -0 -0 -0 -0 -0 -0 -0 -0 -0 -0 -0 -0 -0 -0 -0 -0 -0 -0 -0 -0
-0 -0 -0 -0 -0 -1 -0 -1 -2 -0 -0 -0 -0 -0 -0 -0 -0 -0 -0 -0 -0 -0 -0 -0 -0 -0 -0 -0 -0 -0 -0 -0 -0 -0 -0 -0 -0 -0 -0 -0 -0 -0 -0
-0 -0 -0 -0 -0 -0 -0 -0 -0 -0 -0 -0 -6 -0 -0 -0 -0 -0 -0 -0 -0 -0 -0 -0 -0 -0 -0 -0 -0 -0 -0 -0 -0 -0 -0 -0 -0 -0 -0 -0 -0 -0 -0
-0 -0 -0 -0 -0 -0 -0 -0 -0 -0 -0 -0 -1 -14 -0 -0 -0 -0 -0 -0 -0 -0 -0 -0 -0 -0 -0 -0 -0 -0 -0 -0 -0 -0 -0 -0 -0 -0 -0 -0 -0 -0 -0
-0 -0 -0 -0 -0 -0 -0 -0 -0 -0 -0 -0 -0 -0 -0 -0 -0 -0 -0 -0 -0 -0 -0 -0 -0 -0 -0 -0 -0 -0 -0 -0 -0 -0 -0 -0 -0 -0 -0 -0 -0 -0 -0
-0 -0 -0 -0 -0 -0 -0 -0 -0 -0 -0 -0 -0 -0 -0 -0 -0 -0 -0 -0 -0 -0 -0 -0 -0 -0 -0 -0 -0 -0 -0 -0 -0 -0 -0 -0 -0 -0 -0 -0 -0 -0 -0
-0 -0 -0 -0 -0 -0 -0 -0 -0 -0 -0 -0 -0 -0 -0 -0 -0 -0 -0 -0 -0 -0 -0 -0 -0 -0 -0 -0 -0 -0 -0 -0 -0 -0 -0 -0 -0 -0 -0 -0 -0 -0 -0
-0 -0 -0 -0 -0 -0 -0 -0 -0 -0 -0 -0 -0 -0 -0 -0 -0 -0 -0 -0 -0 -0 -0 -0 -0 -0 -0 -0 -0 -0 -0 -0 -0 -0 -0 -0 -0 -0 -0 -0 -0 -0 -0
-0 -0 -0 -0 -0 -0 -0 -0 -0 -0 -0 -0 -0 -0 -0 -0 -0 -0 -0 -0 -0 -0 -0 -0 -0 -0 -0 -0 -0 -0 -0 -0 -0 -0 -0 -0 -0 -0 -0 -0 -0 -0 -0
-0 -0 -0 -0 -0 -0 -0 -0 -0 -0 -0 -0 -0 -0 -0 -0 -0 -0 -0 -0 -0 -0 -0 -0 -0 -0 -0 -0 -0 -0 -0 -0 -0 -0 -0 -0 -0 -0 -0 -0 -0 -0 -0
-187 -0 -0 -0 -0 -0 -0 -0 -0 -0 -0 -0 -0 -0 -0 -0 -0 -0 -0 -0 -0 -0 -0 -0 -0 -0 -0 -0 -0 -0 -0 -0 -0 -0 -0 -0 -0 -0 -0 -0 -0 -0 -0
-0 -0 -0 -0 -0 -0 -0 -0 -0 -0 -0 -0 -0 -0 -0 -0 -0 -0 -0 -0 -0 -0 -0 -1 -0 -0 -0 -0 -0 -0 -0 -0 -0 -0 -0 -0 -0 -0 -0 -0 -0 -0 -0
-0 -0 -0 -0 -0 -0 -0 -0 -0 -0 -0 -0 -0 -0 -0 -0 -0 -0 -0 -0 -0 -0 -0 -0 -0 -0 -0 -0 -0 -0 -0 -0 -0 -0 -0 -0 -0 -0 -0 -0 -0 -0 -0
-0 -0 -0 -0 -0 -0 -0 -0 -0 -0 -0 -0 -0 -0 -0 -0 -0 -0 -0 -0 -0 -0 -0 -0 -0 -0 -0 -0 -0 -0 -0 -0 -0 -0 -0 -0 -0 -0 -0 -0 -0 -0 -0
-0 -0 -0 -0 -0 -0 -0 -0 -0 -0 -0 -0 -0 -0 -0 -0 -0 -0 -0 -0 -0 -0 -0 -0 -0 -0 -0 -0 -0 -0 -0 -0 -0 -0 -0 -0 -0 -0 -0 -0 -0 -0 -0
Wind_Speed
10 7 9 9 8 8 9 10 9 9 9 9 10 10 9 9 10 6 6 9 12 14 15 15 15 15 15 15 15 15 15 16 16 17 17 17 18 18 18 18 18 18 19
9 8 10 10 10 10 9 9 10 10 9 9 9 8 9 8 9 10 7 9 12 13 14 15 15 15 15 15 15 15 15 15 16 16 17 17 17 17 18 18 18 18 18
12 12 9 9 8 7 11 9 10 9 8 8 10 9 8 8 8 9 8 9 11 11 11 14 14 15 15 15 15 15 15 15 16 16 16 17 17 17 17 17 17 17 18
14 14 9 9 10 8 9 9 11 10 10 9 9 9 8 8 8 8 8 9 10 9 8 11 13 14 14 15 15 15 15 15 15 16 16 16 16 16 16 17 16 16 17
16 12 11 10 10 10 10 9 10 12 12 10 10 9 8 8 8 7 9 10 10 10 8 10 10 11 13 14 15 15 15 15 15 15 15 16 15 15 15 15 15 15 16
18 15 11 11 12 11 10 10 10 10 13 11 10 8 6 7 7 8 9 8 9 11 9 10 9 7 9 12 13 14 14 14 14 14 14 15 14 15 14 14 14 15 16
18 18 13 14 12 11 14 11 7 11 8 12 13 7 4 5 7 7 8 8 10 10 11 10 6 8 7 10 11 13 14 13 13 14 14 14 13 13 13 13 13 14 15
18 16 17 15 17 13 16 17 21 11 7 15 12 11 7 5 6 7 8 9 11 9 10 10 10 9 9 7 9 10 12 13 12 12 13 13 12 12 12 12 12 13 14
21 21 20 16 17 16 16 20 19 24 16 16 20 11 9 9 11 8 10 9 12 10 9 10 11 9 10 8 10 9 9 12 12 12 12 11 11 11 11 11 11 12 12
21 22 22 19 18 16 19 19 19 20 17 19 13 9 6 12 10 9 10 11 11 12 12 10 10 9 9 8 9 10 11 10 12 12 12 11 11 10 10 11 11 11 12
20 20 22 22 20 16 20 23 22 22 19 17 16 15 8 9 11 7 12 13 10 11 11 10 10 9 9 9 9 11 13 9 11 12 12 11 11 11 10 10 10 11 11
7 15 20 19 19 19 20 20 25 25 21 20 17 18 14 11 12 7 7 14 14 12 10 10 11 9 9 8 10 16 15 13 13 13 11 11 10 10 10 9 9 10 10
3 5 4 8 11 15 16 15 14 11 12 11 17 17 12 9 11 6 10 12 12 8 7 9 10 10 9 9 10 15 16 14 14 14 12 11 10 9 8 8 8 8 9
5 4 4 6 6 5 4 6 8 11 11 12 10 12 7 7 12 9 9 13 12 7 8 8 10 10 10 10 11 16 12 14 13 14 12 10 8 8 7 6 6 7 8
6 7 5 4 7 9 10 10 8 11 13 14 13 7 5 3 5 8 9 14 12 9 12 10 7 12 10 9 11 12 10 15 13 12 12 11 8 7 5 5 6 6 7
6 7 5 6 8 8 12 13 10 12 14 13 11 13 2 1 5 5 8 7 6 10 9 5 4 13 13 10 13 12 11 15 12 10 11 11 9 6 6 7 5 5 6
6 5 4 4 4 5 7 11 11 13 14 12 12 14 12 6 4 5 5 6 7 7 8 3 3 8 14 13 13 11 10 9 8 15 14 12 10 9 6 5 4 4 5
6 4 4 3 5 6 6 8 9 9 14 13 14 15 14 9 10 8 7 7 6 5 6 10 7 7 10 13 13 13 9 7 9 12 13 13 10 7 5 3 3 3 4
9 6 3 4 6 4 5 6 9 12 11 14 15 16 15 15 12 9 8 8 7 5 6 8 8 5 6 9 12 11 9 9 6 13 13 11 7 5 3 2 2 2 2
10 8 7 6 6 7 6 6 8 9 10 10 13 14 14 14 12 12 9 9 8 8 8 9 7 8 8 10 10 11 9 7 7 6 5 4 5 4 2 2 1 3 3
9 9 8 7 7 8 8 9 8 11 10 9 8 10 11 13 16 13 8 8 9 7 8 8 8 8 9 11 13 10 9 8 5 4 4 5 4 3 3 5 3 3 6
9 8 8 8 10 6 10 13 12 9 10 11 10 7 8 16 15 17 15 16 12 13 11 9 9 12 14 12 11 10 9 9 6 4 5 5 4 4 3 4 1 6 11
9 9 7 9 8 7 14 16 17 11 11 10 10 10 8 7 13 11 14 15 11 8 7 9 12 12 13 14 13 14 12 9 5 5 4 4 3 4 3 4 5 10 11
8 9 7 7 6 5 15 14 14 11 10 11 12 12 13 11 11 13 12 11 10 8 6 4 8 9 9 12 12 9 9 8 6 4 3 3 2 3 3 5 7 7 6
7 8 5 5 6 4 15 18 13 9 11 11 11 12 13 12 19 21 13 13 13 10 12 17 16 16 17 15 12 10 8 8 4 4 3 3 2 3 4 5 2 3 4
7 5 2 4 6 6 16 19 16 8 10 9 9 11 18 15 21 20 14 13 13 11 12 13 12 14 14 13 12 6 8 7 4 4 4 4 2 2 3 2 3 3 5
Wind_Direction
189 171 186 182 183 173 174 173 170 165 162 156 154 156 154 148 146 144 143 151 134 135 129 124 120 113 109 104 100 97 94 90 88 84 80 75 72 68 66 63 60 59 58
188 186 193 188 181 179 179 175 169 169 167 162 156 158 153 151 151 147 141 145 135 133 133 127 123 119 116 110 105 101 98 95 90 86 84 80 76 72 68 66 64 61 59
188 191 200 194 189 185 172 166 165 162 162 166 156 156 154 154 153 147 145 155 129 115 128 129 127 124 122 117 112 106 100 96 92 89 85 82 77 74 71 67 64 62 60
193 185 188 202 178 177 185 182 170 169 167 167 161 159 158 159 156 152 146 146 149 141 119 130 133 130 128 123 119 114 107 101 96 92 89 84 80 76 73 70 66 63 61
192 186 179 182 187 174 186 190 184 166 170 170 162 159 159 156 160 162 154 149 147 146 143 129 129 131 132 127 122 117 112 107 103 97 92 87 82 77 72 69 70 67 64
194 194 188 184 178 177 182 186 195 186 168 157 153 150 161 158 161 167 166 160 154 150 150 149 145 120 126 127 125 121 115 111 106 100 95 89 85 81 75 70 68 65 61
199 194 192 184 179 188 171 166 165 183 171 157 134 139 143 165 172 172 171 169 161 161 151 152 152 145 129 123 127 125 120 113 109 104 99 93 88 84 81 76 71 67 61
210 207 197 189 181 178 184 187 171 170 203 182 152 149 166 182 204 193 186 179 172 168 161 159 149 145 141 139 117 118 121 119 115 110 105 99 95 90 86 80 74 71 64
214 209 212 199 188 181 190 192 193 181 180 200 165 154 164 192 160 190 199 187 179 178 173 162 156 154 146 136 140 123 114 124 122 115 108 101 97 91 86 80 73 69 62
219 212 207 210 202 191 189 199 192 193 183 191 182 185 171 141 170 167 199 195 190 184 180 171 167 165 155 150 148 131 132 130 130 125 119 111 101 93 87 78 71 66 59
212 214 213 203 209 210 199 189 202 197 197 191 188 179 171 169 143 149 169 179 190 193 181 181 172 173 170 162 155 142 141 130 135 132 123 114 107 100 90 82 73 65 59
267 224 213 214 214 212 205 202 199 205 207 192 193 186 177 179 156 153 146 172 175 185 180 183 179 179 176 172 162 150 149 145 143 134 124 114 103 97 93 82 71 67 55
179 200 208 254 244 239 219 215 213 232 199 252 203 191 182 182 138 127 136 158 168 164 181 194 187 181 178 177 166 164 158 157 151 140 132 122 109 98 88 75 63 62 52
315 297 185 157 188 196 198 213 177 182 175 193 218 262 194 198 146 143 147 149 151 169 171 169 190 185 182 178 172 171 166 166 159 145 142 133 116 100 83 59 59 58 44
291 284 278 227 164 189 173 156 191 168 176 185 157 208 220 199 151 138 150 162 146 164 184 180 165 187 180 176 172 177 178 170 165 159 159 147 135 110 74 64 67 45 22
296 293 267 253 230 200 169 162 171 163 161 173 154 134 157 222 127 133 146 152 155 141 170 165 161 171 176 180 172 180 181 169 171 171 158 147 131 116 106 84 56 10 350
307 283 246 200 191 193 195 167 171 169 172 161 150 148 145 150 116 106 116 116 126 113 131 114 115 157 175 173 172 175 174 172 150 133 132 132 127 114 95 66 34 359 346
273 273 263 186 200 170 160 153 149 154 153 156 151 146 147 150 147 151 139 128 127 112 120 158 151 146 181 182 163 169 167 155 144 134 133 128 119 109 92 68 36 13 10
265 252 212 223 190 176 169 178 157 151 156 150 154 152 157 153 154 156 151 143 143 129 136 146 142 148 139 159 155 156 153 139 137 130 120 120 117 114 90 88 71 353 350
257 239 209 200 214 168 172 178 158 141 140 156 156 151 152 158 154 142 141 146 142 133 125 137 130 139 137 160 157 148 154 159 150 155 135 131 158 133 144 178 4 324 328
252 242 212 202 198 194 177 171 164 147 140 148 143 150 151 145 141 149 144 149 146 137 130 135 133 146 154 162 171 167 168 163 159 182 180 186 196 210 193 196 244 243 297
241 225 226 219 182 191 179 159 153 145 145 152 145 134 143 145 150 151 150 155 159 155 153 150 160 168 168 169 169 170 162 174 184 189 203 196 216 227 232 238 118 276 306
262 246 215 212 209 177 175 170 153 142 148 143 136 134 121 131 131 133 128 120 119 127 139 151 157 174 169 168 166 169 176 182 174 142 178 225 215 232 216 221 248 294 299
257 255 229 212 203 174 161 160 145 142 136 141 143 143 135 135 137 128 125 120 119 106 125 112 143 146 148 158 156 159 154 124 108 131 179 229 173 249 266 286 296 289 282
257 243 230 208 167 148 160 151 136 135 131 132 133 136 135 133 141 138 126 117 107 90 88 95 101 113 124 131 135 131 145 158 152 164 185 216 180 266 282 289 277 268 269
267 240 228 196 180 154 160 153 136 134 130 128 121 130 138 140 140 136 130 130 126 129 118 110 106 105 111 118 121 136 153 166 147 167 171 200 202 345 295 223 254 241 275